Hourly Data Report for October 07, 2016

All times are specified in Local Standard Time (LST). Add 1 hour to adjust for Daylight Saving Time where and when it is observed.

PENTICTON A
BRITISH COLUMBIA

49°27'45.000" N
119°36'08.000" W
344.40 m
1126146
71889
YYF

Download Data

Hourly Data (October 2016)
Hourly Data Report for October 7, 2016
Temp Definition
°C
Dew Point Temp Definition
°C
Rel Hum Definition
%
Wind Dir Definition
10's deg

Wind Spd Definition
km/h
Visibility Definition
km
Stn Press Definition
kPa
Hmdx Definition


Wind Chill Definition


Weather Definition


TIME
00:00 Legend Double Dagger 11.8 9.0 83 18 36 19.3 97.06     Rain
01:00 Legend Double Dagger 12.1 8.2 77 18 35 19.3 97.01     Rain
02:00 Legend Double Dagger 11.8 8.7 81 18 34 24.1 96.91     Rain
03:00 Legend Double Dagger 11.8 7.9 77 18 34 24.1 96.83     Rain
04:00 Legend Double Dagger 11.4 8.3 81 19 32 24.1 96.72     Rain
05:00 Legend Double Dagger 11.1 9.0 87 14 18 24.1 96.77     Rain
06:00 Legend Double Dagger 11.2 9.6 90 18 32 24.1 96.69     Rain
07:00 Legend Double Dagger 12.6 9.1 79 18 33 24.1 96.75     Mostly Cloudy
08:00 Legend Double Dagger 13.1 9.0 76 18 33 24.1 96.79     LegendNANA
09:00 Legend Double Dagger 13.7 8.8 72 18 32 24.1 96.84     LegendNANA
10:00 Legend Double Dagger 15.0 9.0 67 18 29 24.1 96.85     Mostly Cloudy
11:00 Legend Double Dagger 14.9 8.4 65 19 30 24.1 96.89     LegendNANA
12:00 Legend Double Dagger 16.9 9.4 61 18 20 24.1 96.91     LegendNANA
13:00 Legend Double Dagger 17.8 8.2 53 16 28 24.1 96.96     Mostly Cloudy
14:00 Legend Double Dagger 18.3 8.1 51 17 18 24.1 97.01     LegendNANA
15:00 Legend Double Dagger 18.3 7.2 48 17 13 24.1 97.10     LegendNANA
16:00 Legend Double Dagger 18.6 0.4 29 36 3 24.1 97.19     Mostly Cloudy
17:00 Legend Double Dagger 16.8 -0.8 30 26 23 24.1 97.28     LegendNANA
18:00 Legend Double Dagger 14.1 0.4 39 23 8 24.1 97.38     LegendNANA
19:00 Legend Double Dagger 15.1 -2.3 30 26 23 24.1 97.43     Mostly Cloudy
20:00 Legend Double Dagger 12.3 0.1 43 29 8 24.1 97.56     LegendNANA
21:00 Legend Double Dagger 12.4 0.5 44 30 8 24.1 97.63     LegendNANA
22:00 Legend Double Dagger 10.9 0.9 50 36 14 24.1 97.66     Mostly Cloudy
23:00 Legend Double Dagger 10.0 1.4 55 1 8 24.1 97.69     LegendNANA

Notes on Data Quality.

Legend

  • E = Estimated
  • M = Missing
  • NA = Not Available
  • ‡ = Partner data that is not subject to review by the National Climate Archives
Date modified: